| time (UTC) | temp F | wind direction | speed MPH | gust MPH | rain 1hr in | rain 24hr in | rain mn in | humidity % | barometer mb |
| 20260510200051 | 90 | 121 | 2.0 | 9.0 | 0.00 | 0.92 | 0.00 | 61 | 1013.3 |
| 20260510194551 | 90 | 72 | 3.0 | 9.0 | 0.00 | 0.92 | 0.00 | 62 | 1013.3 |
| 20260510193049 | 89 | 124 | 4.0 | 8.0 | 0.00 | 0.92 | 0.00 | 60 | 1013.4 |
| 20260510191550 | 89 | 122 | 3.0 | 11.0 | 0.00 | 0.92 | 0.00 | 63 | 1013.6 |
| 20260510190051 | 89 | 115 | 3.0 | 12.0 | 0.00 | 0.92 | 0.00 | 63 | 1013.7 |
| 20260510184550 | 88 | 96 | 4.0 | 12.0 | 0.00 | 0.92 | 0.00 | 62 | 1013.9 |
| 20260510183048 | 88 | 120 | 4.0 | 7.0 | 0.00 | 0.92 | 0.00 | 61 | 1013.9 |
| 20260510181545 | 88 | 122 | 3.0 | 9.0 | 0.00 | 0.92 | 0.00 | 62 | 1014.2 |
| 20260510180051 | 88 | 111 | 3.0 | 8.0 | 0.00 | 0.92 | 0.00 | 64 | 1014.3 |
| 20260510174555 | 87 | 117 | 4.0 | 11.0 | 0.00 | 0.92 | 0.00 | 64 | 1014.6 |
| 20260510173058 | 87 | 122 | 4.0 | 8.0 | 0.00 | 0.92 | 0.00 | 66 | 1014.6 |
| 20260510171554 | 86 | 129 | 2.0 | 5.0 | 0.00 | 0.92 | 0.00 | 67 | 1014.8 |
| 20260510170051 | 86 | 127 | 1.0 | 5.0 | 0.00 | 0.92 | 0.00 | 68 | 1015.0 |
| 20260510164551 | 84 | 115 | 1.0 | 9.0 | 0.00 | 0.92 | 0.00 | 72 | 1015.1 |
| 20260510163048 | 85 | 124 | 1.0 | 7.0 | 0.00 | 0.92 | 0.00 | 71 | 1015.2 |
| 20260510161550 | 84 | 141 | 1.0 | 5.0 | 0.00 | 0.92 | 0.00 | 71 | 1015.3 |
| 20260510160052 | 83 | 113 | 3.0 | 7.0 | 0.00 | 0.92 | 0.00 | 72 | 1015.5 |
| 20260510154549 | 83 | 115 | 2.0 | 6.0 | 0.00 | 0.92 | 0.00 | 74 | 1015.6 |
| 20260510153048 | 82 | 129 | 1.0 | 4.0 | 0.00 | 0.92 | 0.00 | 76 | 1015.8 |
| 20260510151552 | 81 | 123 | 1.0 | 4.0 | 0.00 | 0.92 | 0.00 | 77 | 1015.7 |
| 20260510150053 | 81 | 122 | 2.0 | 3.0 | 0.00 | 0.92 | 0.00 | 80 | 1015.7 |
| 20260510144605 | 80 | 127 | 0.0 | 1.0 | 0.00 | 0.92 | 0.00 | 83 | 1015.7 |
| 20260510143104 | 79 | 139 | 0.0 | 2.0 | 0.00 | 0.92 | 0.00 | 85 | 1015.8 |
| 20260510141600 | 78 | 149 | 0.0 | 2.0 | 0.00 | 0.92 | 0.00 | 87 | 1015.6 |
| 20260510140051 | 77 | 139 | 0.0 | 1.0 | 0.00 | 0.92 | 0.00 | 89 | 1015.5 |
| 20260510134604 | 76 | 135 | 0.0 | 1.0 | 0.00 | 0.92 | 0.00 | 90 | 1015.3 |
| 20260510133050 | 76 | 0 | 0.0 | 1.0 | 0.00 | 0.92 | 0.00 | 91 | 1015.2 |
| 20260510131545 | 76 | 0 | 0.0 | 1.0 | 0.00 | 0.92 | 0.00 | 92 | 1014.9 |
| 20260510130047 | 75 | 134 | 0.0 | 1.0 | 0.00 | 0.92 | 0.00 | 93 | 1014.5 |
| 20260510124553 | 74 | 0 | 0.0 | 1.0 | 0.00 | 0.92 | 0.00 | 93 | 1014.1 |
| 20260510123054 | 74 | 0 | 0.0 | 1.0 | 0.00 | 0.92 | 0.00 | 93 | 1013.8 |
| 20260510121544 | 74 | 126 | 0.0 | 1.0 | 0.00 | 0.92 | 0.00 | 93 | 1013.2 |
| 20260510120047 | 74 | 0 | 0.0 | 1.0 | 0.00 | 0.92 | 0.00 | 93 | 1013.1 |
| 20260510114547 | 74 | 126 | 0.0 | 3.0 | 0.00 | 0.92 | 0.00 | 93 | 1012.6 |
| 20260510113046 | 74 | 124 | 1.0 | 6.0 | 0.00 | 0.92 | 0.00 | 93 | 1012.5 |
| 20260510111555 | 74 | 117 | 2.0 | 5.0 | 0.00 | 0.92 | 0.00 | 93 | 1012.3 |
| 20260510110047 | 74 | 75 | 2.0 | 6.0 | 0.00 | 0.92 | 0.00 | 93 | 1012.3 |
| 20260510104605 | 74 | 126 | 0.0 | 4.0 | 0.00 | 0.92 | 0.00 | 93 | 1011.9 |
| 20260510103049 | 74 | 124 | 1.0 | 7.0 | 0.00 | 0.92 | 0.00 | 93 | 1011.9 |
| 20260510101549 | 73 | 97 | 3.0 | 9.0 | 0.00 | 0.92 | 0.00 | 93 | 1012.0 |
| 20260510100059 | 74 | 110 | 2.0 | 8.0 | 0.00 | 0.92 | 0.00 | 93 | 1011.7 |
| 20260510094548 | 74 | 86 | 4.0 | 10.0 | 0.00 | 0.92 | 0.00 | 93 | 1011.7 |
| 20260510093045 | 74 | 91 | 3.0 | 9.0 | 0.00 | 0.92 | 0.00 | 94 | 1011.6 |
| 20260510091546 | 73 | 122 | 2.0 | 6.0 | 0.00 | 0.92 | 0.00 | 94 | 1011.9 |
| 20260510090045 | 73 | 121 | 2.0 | 6.0 | 0.00 | 0.92 | 0.00 | 94 | 1012.1 |
| 20260510084547 | 73 | 110 | 2.0 | 7.0 | 0.00 | 0.92 | 0.00 | 94 | 1012.1 |
| 20260510083047 | 73 | 122 | 1.0 | 2.0 | 0.00 | 0.92 | 0.00 | 93 | 1012.0 |
| 20260510081557 | 73 | 124 | 0.0 | 3.0 | 0.00 | 0.92 | 0.00 | 93 | 1011.9 |
| 20260510080047 | 74 | 106 | 2.0 | 4.0 | 0.00 | 0.92 | 0.00 | 93 | 1011.9 |
| 20260510074554 | 74 | 121 | 1.0 | 4.0 | 0.00 | 0.92 | 0.00 | 92 | 1011.7 |
| 20260510073052 | 74 | 119 | 2.0 | 3.0 | 0.00 | 0.92 | 0.00 | 92 | 1012.0 |
| 20260510071549 | 74 | 120 | 2.0 | 5.0 | 0.00 | 0.92 | 0.00 | 92 | 1011.8 |
| 20260510070048 | 74 | 92 | 3.0 | 7.0 | 0.00 | 0.92 | 0.00 | 91 | 1011.9 |
| 20260510064546 | 74 | 116 | 2.0 | 7.0 | 0.00 | 0.92 | 0.00 | 90 | 1011.8 |
| 20260510063045 | 74 | 120 | 2.0 | 5.0 | 0.00 | 0.92 | 0.00 | 89 | 1011.9 |
| 20260510061552 | 75 | 118 | 2.0 | 6.0 | 0.00 | 0.92 | 0.00 | 88 | 1012.3 |
| 20260510060054 | 75 | 120 | 2.0 | 5.0 | 0.00 | 0.92 | 0.00 | 88 | 1012.2 |
| 20260510054549 | 75 | 119 | 2.0 | 6.0 | 0.00 | 0.92 | 0.00 | 89 | 1012.4 |
| 20260510053058 | 75 | 122 | 2.0 | 8.0 | 0.00 | 0.92 | 0.00 | 88 | 1012.2 |
| 20260510051613 | 75 | 92 | 2.0 | 8.0 | 0.00 | 0.92 | 0.00 | 86 | 1012.3 |
| 20260510050048 | 75 | 94 | 3.0 | 5.0 | 0.00 | 0.92 | 0.00 | 85 | 1012.2 |
| 20260510044555 | 75 | 120 | 1.0 | 2.0 | 0.00 | 0.92 | 0.92 | 84 | 1012.5 |
| 20260510043127 | 76 | 122 | 1.0 | 4.0 | 0.00 | 0.92 | 0.92 | 83 | 1012.7 |
| 20260510041553 | 76 | 118 | 3.0 | 5.0 | 0.00 | 0.92 | 0.92 | 82 | 1012.4 |
| 20260510040052 | 76 | 120 | 1.0 | 4.0 | 0.00 | 0.92 | 0.92 | 81 | 1012.5 |
| 20260510034553 | 76 | 110 | 2.0 | 3.0 | 0.00 | 0.92 | 0.92 | 80 | 1012.4 |
| 20260510033050 | 76 | 123 | 2.0 | 5.0 | 0.00 | 0.92 | 0.92 | 80 | 1012.6 |
| 20260510031613 | 72 | 120 | 1.0 | 3.0 | 0.00 | 0.92 | 0.92 | 87 | 1012.3 |
| 20260510030052 | 71 | 140 | 0.0 | 1.0 | 0.00 | 0.92 | 0.92 | 91 | 1012.2 |
| 20260510024550 | 71 | 0 | 0.0 | 1.0 | 0.00 | 0.92 | 0.92 | 91 | 1011.6 |
| 20260510023053 | 71 | 0 | 0.0 | 1.0 | 0.00 | 0.92 | 0.92 | 91 | 1011.4 |
| 20260510021547 | 71 | 0 | 0.0 | 1.0 | 0.00 | 0.92 | 0.92 | 92 | 1011.1 |
| 20260510020049 | 71 | 122 | 1.0 | 2.0 | 0.00 | 0.92 | 0.92 | 93 | 1010.3 |
| 20260510014544 | 70 | 0 | 0.0 | 1.0 | 0.00 | 0.92 | 0.92 | 94 | 1010.0 |
| 20260510013049 | 70 | 0 | 0.0 | 0.0 | 0.00 | 0.92 | 0.92 | 94 | 1009.8 |
| 20260510011606 | 69 | 149 | 0.0 | 2.0 | 0.04 | 0.92 | 0.92 | 94 | 1009.8 |
| 20260510010104 | 69 | 144 | 0.0 | 1.0 | 0.12 | 0.92 | 0.92 | 94 | 1009.9 |
| 20260510004544 | 69 | 145 | 0.0 | 1.0 | 0.40 | 0.92 | 0.92 | 93 | 1009.5 |
| 20260510003058 | 67 | 0 | 0.0 | 5.0 | 0.65 | 0.92 | 0.92 | 91 | 1009.5 |
| 20260510001552 | 67 | 147 | 0.0 | 11.0 | 0.88 | 0.88 | 0.88 | 91 | 1010.3 |
| 20260510000049 | 68 | 0 | 1.0 | 12.0 | 0.78 | 0.78 | 0.78 | 87 | 1010.5 |
| 20260509234546 | 70 | 148 | 1.0 | 7.0 | 0.50 | 0.50 | 0.50 | 82 | 1010.3 |
| 20260509233047 | 75 | 113 | 1.0 | 14.0 | 0.26 | 0.26 | 0.26 | 69 | 1009.4 |
| 20260509231550 | 84 | 125 | 3.0 | 9.0 | 0.00 | 0.00 | 0.00 | 71 | 1009.2 |
| 20260509230050 | 87 | 109 | 3.0 | 6.0 | 0.00 | 0.00 | 0.00 | 63 | 1008.9 |
| 20260509224551 | 88 | 124 | 1.0 | 2.0 | 0.00 | 0.00 | 0.00 | 59 | 1008.8 |
| 20260509223047 | 89 | 0 | 0.0 | 1.0 | 0.00 | 0.00 | 0.00 | 59 | 1008.7 |
| 20260509221549 | 88 | 0 | 0.0 | 1.0 | 0.00 | 0.00 | 0.00 | 60 | 1008.5 |
| 20260509220052 | 89 | 0 | 1.0 | 2.0 | 0.00 | 0.00 | 0.00 | 58 | 1008.6 |
| 20260509214547 | 90 | 0 | 0.0 | 4.0 | 0.00 | 0.00 | 0.00 | 58 | 1008.8 |
| 20260509213100 | 91 | 147 | 0.0 | 2.0 | 0.00 | 0.00 | 0.00 | 60 | 1008.5 |
| 20260509211608 | 91 | 150 | 0.0 | 2.0 | 0.00 | 0.00 | 0.00 | 59 | 1008.6 |
| 20260509210056 | 90 | 0 | 0.0 | 2.0 | 0.00 | 0.00 | 0.00 | 58 | 1008.9 |
| 20260509204559 | 92 | 139 | 0.0 | 1.0 | 0.00 | 0.00 | 0.00 | 55 | 1009.1 |
| 20260509203055 | 90 | 0 | 0.0 | 4.0 | 0.00 | 0.00 | 0.00 | 57 | 1009.3 |
| 20260509201547 | 90 | 152 | 1.0 | 6.0 | 0.00 | 0.00 | 0.00 | 59 | 1009.4 |